Weather History for Hillsboro, TX

Change the Weather History Date:

Sunday, July 28, 2013

  Actual Average (KACT) Record (KACT)
Temperature  
Mean Temperature 80 °F 86 °F  
Max Temperature 94 °F 98 °F 106 °F (1969)
Min Temperature 68 °F 75 °F 60 °F (1994)
Degree Days  
Heating Degree Days 0 0  
Month to date heating degree days 0  
Since 1 June heating degree days 0  
Since 1 July heating degree days 0  
Cooling Degree Days 16 21  
Month to date cooling degree days 563  
Year to date cooling degree days 1503  
Since 1 June cooling degree days 1051  
Growing Degree Days 30 (Base 50)    
Moisture  
Dew Point 66 °F    
Average Humidity 62    
Maximum Humidity 86    
Minimum Humidity 36    
Precipitation  
Precipitation 0.00 in 0.06 in 2.02 in (1902)
Month to date precipitation 1.62  
Year to date precipitation 19.94  
Sea Level Pressure  
Sea Level Pressure 29.95 in    
Wind  
Wind Speed 5 mph (ESE)    
Max Wind Speed 14 mph    
Max Gust Speed 17 mph    
Visibility 10 miles    
Events      
T = Trace of Precipitation, MM = Missing Value Source: NWS Daily Summary

Daily Weather History Graph

Daily Weather History Graph

Search for Another Location

Airport:

Trip Planner

Search our weather history database for the weather conditions in past years. The results will help you decide how hot, cold, wet, or windy it might be!

Date:

Astronomy

Jul. 28, 2013 Rise Set
Actual Time 6:41 AM CDT 8:28 PM CDT
Civil Twilight 6:14 AM CDT 8:55 PM CDT
Nautical Twilight 5:41 AM CDT 9:27 PM CDT
Astronomical Twilight 5:07 AM CDT 10:01 PM CDT
Moon No Moon Rise 12:57 PM CDT (7/28)
Length of Visible Light 14h 40m
Length of Day
13h 47m
Waning Gibbous, 60% of the Moon is Illuminated
Jul 28
Waning Gibbous
Jul 29
Last Quarter
Aug 6
New
Aug 14
First Quarter
Aug 20
Full

Hourly Weather History & Observations

Time (CDT) Temp. Heat Index Dew Point Humidity Pressure Visibility Wind Dir Wind Speed Gust Speed Precip Events Conditions
12:15 AM 73.2 °F - 64.6 °F 74% 29.98 in 10.0 mi ESE 3.5 mph - N/A   Clear
12:35 AM 70.7 °F - 63.7 °F 78% 29.98 in 10.0 mi Calm Calm - N/A   Clear
12:55 AM 71.4 °F - 65.1 °F 80% 29.97 in 10.0 mi Calm Calm - N/A   Clear
1:15 AM 70.2 °F - 64.0 °F 81% 29.97 in 10.0 mi Calm Calm - N/A   Clear
1:35 AM 70.7 °F - 64.8 °F 81% 29.97 in 10.0 mi Calm Calm - N/A   Clear
1:55 AM 69.3 °F - 64.2 °F 84% 29.96 in 7.0 mi Calm Calm - N/A   Clear
2:15 AM 68.9 °F - 64.4 °F 86% 29.95 in 7.0 mi Calm Calm - N/A   Clear
2:35 AM 68.5 °F - 63.7 °F 84% 29.95 in 10.0 mi Calm Calm - N/A   Clear
2:55 AM 69.4 °F - 63.9 °F 82% 29.96 in 10.0 mi East 4.6 mph - N/A   Clear
3:15 AM 70.3 °F - 64.8 °F 82% 29.96 in 10.0 mi East 4.6 mph - N/A   Clear
3:35 AM 69.8 °F - 64.0 °F 82% 29.97 in 10.0 mi Calm Calm - N/A   Clear
3:55 AM 69.1 °F - 63.5 °F 82% 29.97 in 10.0 mi East 3.5 mph - N/A   Clear
4:15 AM 69.1 °F - 63.5 °F 82% 29.97 in 10.0 mi East 4.6 mph - N/A   Scattered Clouds
4:35 AM 71.2 °F - 65.3 °F 81% 29.97 in 10.0 mi East 5.8 mph - N/A   Scattered Clouds
4:55 AM 72.1 °F - 65.3 °F 79% 29.96 in 10.0 mi ESE 5.8 mph - N/A   Scattered Clouds
5:15 AM 71.8 °F - 65.3 °F 80% 29.95 in 10.0 mi East 6.9 mph - N/A   Clear
5:35 AM 71.6 °F - 65.5 °F 81% 29.95 in 10.0 mi East 6.9 mph - N/A   Clear
5:55 AM 71.2 °F - 65.3 °F 81% 29.95 in 10.0 mi East 6.9 mph - N/A   Clear
6:15 AM 70.9 °F - 65.3 °F 82% 29.96 in 10.0 mi East 5.8 mph - N/A   Clear
6:35 AM 70.9 °F - 65.3 °F 82% 29.97 in 10.0 mi East 5.8 mph - N/A   Clear
6:55 AM 70.9 °F - 65.5 °F 83% 29.97 in 10.0 mi East 5.8 mph - N/A   Clear
7:15 AM 71.4 °F - 65.8 °F 82% 29.98 in 10.0 mi East 6.9 mph - N/A   Clear
7:35 AM 71.8 °F - 65.8 °F 81% 29.98 in 10.0 mi East 6.9 mph - N/A   Clear
7:55 AM 72.1 °F - 65.7 °F 80% 29.98 in 10.0 mi East 8.1 mph - N/A   Clear
8:15 AM 73.8 °F - 66.2 °F 77% 29.99 in 10.0 mi East 6.9 mph - N/A   Clear
8:35 AM 75.4 °F - 66.4 °F 73% 29.99 in 10.0 mi ESE 9.2 mph - N/A   Mostly Cloudy
8:55 AM 75.4 °F - 65.7 °F 72% 30.00 in 10.0 mi ESE 12.7 mph 16.1 mph N/A   Overcast
9:15 AM 75.9 °F - 66.2 °F 72% 29.99 in 10.0 mi East 11.5 mph - N/A   Mostly Cloudy
9:35 AM 79.0 °F - 66.4 °F 65% 29.99 in 10.0 mi East 13.8 mph - N/A   Scattered Clouds
9:55 AM 79.9 °F - 66.2 °F 63% 29.99 in 10.0 mi East 11.5 mph - N/A   Clear
10:15 AM 81.0 °F 83.0 °F 66.0 °F 60% 29.98 in 10.0 mi East 11.5 mph - N/A   Clear
10:35 AM 82.6 °F 84.7 °F 65.8 °F 57% 29.98 in 10.0 mi East 10.4 mph - N/A   Clear
10:55 AM 83.8 °F 85.6 °F 65.3 °F 53% 29.99 in 10.0 mi ESE 8.1 mph - N/A   Scattered Clouds
11:15 AM 83.7 °F 85.3 °F 64.9 °F 53% 29.99 in 10.0 mi ESE 5.8 mph - N/A   Overcast
11:35 AM 84.2 °F 86.3 °F 65.8 °F 54% 29.98 in 10.0 mi East 9.2 mph - N/A   Mostly Cloudy
11:55 AM 86.0 °F 88.5 °F 66.4 °F 52% 29.98 in 10.0 mi SE 6.9 mph - N/A   Mostly Cloudy
12:15 PM 85.8 °F 88.5 °F 66.9 °F 53% 29.98 in 10.0 mi SE 4.6 mph - N/A   Mostly Cloudy
12:35 PM 86.9 °F 89.6 °F 66.9 °F 51% 29.98 in 10.0 mi SSE 4.6 mph - N/A   Mostly Cloudy
12:55 PM 86.9 °F 89.9 °F 67.1 °F 52% 29.97 in 10.0 mi Calm Calm - N/A   Mostly Cloudy
1:15 PM 88.0 °F 91.0 °F 67.5 °F 50% 29.97 in 10.0 mi SSE 5.8 mph - N/A   Scattered Clouds
1:35 PM 88.2 °F 91.3 °F 67.3 °F 50% 29.97 in 10.0 mi East 4.6 mph - N/A   Scattered Clouds
1:55 PM 89.1 °F 92.9 °F 68.0 °F 50% 29.95 in 10.0 mi East 4.6 mph - N/A   Scattered Clouds
2:15 PM 89.6 °F 93.0 °F 67.6 °F 48% 29.95 in 10.0 mi ESE 11.5 mph - N/A   Scattered Clouds
2:35 PM 90.0 °F 92.8 °F 66.9 °F 46% 29.95 in 10.0 mi ESE 9.2 mph - N/A   Scattered Clouds
2:55 PM 90.3 °F 94.3 °F 68.0 °F 48% 29.93 in 10.0 mi ESE 6.9 mph - N/A   Scattered Clouds
3:15 PM 90.1 °F 93.1 °F 66.7 °F 46% 29.93 in 10.0 mi SE 5.8 mph - N/A   Scattered Clouds
3:35 PM 91.0 °F 93.8 °F 66.0 °F 44% 29.92 in 10.0 mi SE 9.2 mph - N/A   Scattered Clouds
3:55 PM 92.1 °F 95.3 °F 66.7 °F 43% 29.91 in 10.0 mi SE 8.1 mph - N/A   Scattered Clouds
4:15 PM 93.4 °F 96.6 °F 66.7 °F 41% 29.90 in 10.0 mi East 10.4 mph 17.3 mph N/A   Scattered Clouds
4:35 PM 93.4 °F 95.2 °F 64.0 °F 38% 29.90 in 10.0 mi South 8.1 mph - N/A   Scattered Clouds
4:55 PM 93.4 °F 95.6 °F 65.1 °F 39% 29.90 in 10.0 mi SSE 12.7 mph 17.3 mph N/A   Scattered Clouds
5:15 PM 93.7 °F 95.8 °F 64.8 °F 38% 29.89 in 10.0 mi SE 12.7 mph 17.3 mph N/A   Clear
5:35 PM 93.4 °F 95.6 °F 64.8 °F 39% 29.89 in 10.0 mi SE 12.7 mph - N/A   Clear
5:55 PM 93.2 °F 94.9 °F 64.0 °F 38% 29.88 in 10.0 mi SE 8.1 mph - N/A   Clear
6:15 PM 93.4 °F 94.7 °F 63.5 °F 37% 29.88 in 10.0 mi SSE 12.7 mph - N/A   Clear
6:35 PM 93.2 °F 94.1 °F 62.8 °F 36% 29.88 in 10.0 mi SE 8.1 mph - N/A   Clear
6:55 PM 92.7 °F 93.2 °F 62.4 °F 36% 29.88 in 10.0 mi SE 9.2 mph - N/A   Clear
7:15 PM 92.7 °F 94.0 °F 63.3 °F 38% 29.88 in 10.0 mi SE 9.2 mph - N/A   Clear
7:35 PM 91.8 °F 93.4 °F 64.2 °F 40% 29.89 in 10.0 mi SE 8.1 mph - N/A   Clear
7:55 PM 90.7 °F 92.8 °F 65.7 °F 43% 29.90 in 10.0 mi ESE 8.1 mph - N/A   Clear
8:15 PM 89.1 °F 91.7 °F 66.4 °F 47% 29.90 in 10.0 mi ESE 6.9 mph - N/A   Clear
8:35 PM 88.0 °F 90.7 °F 66.6 °F 49% 29.90 in 10.0 mi East 5.8 mph - N/A   Clear
8:55 PM 86.7 °F 89.3 °F 66.7 °F 51% 29.91 in 10.0 mi East 4.6 mph - N/A   Clear
9:15 PM 86.0 °F 88.8 °F 67.1 °F 53% 29.91 in 10.0 mi East 8.1 mph - N/A   Clear
9:35 PM 85.5 °F 88.2 °F 67.1 °F 54% 29.92 in 10.0 mi East 5.8 mph - N/A   Clear
9:55 PM 84.6 °F 87.4 °F 67.5 °F 56% 29.93 in 10.0 mi ESE 6.9 mph - N/A   Clear
10:15 PM 84.4 °F 87.6 °F 68.2 °F 58% 29.93 in 10.0 mi ESE 8.1 mph - N/A   Clear
10:35 PM 84.2 °F 87.9 °F 68.9 °F 60% 29.94 in 10.0 mi East 8.1 mph - N/A   Clear
10:55 PM 83.3 °F 87.1 °F 69.6 °F 63% 29.95 in 10.0 mi East 9.2 mph - N/A   Clear
11:15 PM 82.6 °F 86.8 °F 70.7 °F 67% 29.94 in 10.0 mi ESE 11.5 mph - N/A   Clear
11:35 PM 82.0 °F 86.3 °F 70.9 °F 69% 29.94 in 10.0 mi East 10.4 mph - N/A   Clear
11:55 PM 81.5 °F 85.5 °F 71.1 °F 70% 29.94 in 10.0 mi East 10.4 mph - N/A   Clear